• în România
  • Lista ţărilor
  • Pe 7 zile
  • Temperatura apei
  • Hartă satelitară
  • Meteo pe hartă
  • Widget-uri
  • user-avatar
    Intrare

    Meteo pe oră la Mendoza

    Astăzi, 20 Noiembrie, Luni

    Timp Temperatura Precipitaţii Vânt Presiune Umiditate
    00:00 +21°C° 0 mm 5 m/s 694 mmHg 34%
    01:00 +20°C° 0 mm 5 m/s 693 mmHg 35%
    02:00 +20°C° 0 mm 5 m/s 693 mmHg 35%
    03:00 +19°C° 0 mm 5 m/s 693 mmHg 36%
    04:00 +17°C° 0 mm 5 m/s 693 mmHg 36%
    05:00 +20°C° 0 mm 5 m/s 694 mmHg 33%
    06:00 +21°C° 0 mm 5 m/s 694 mmHg 30%
    07:00 +22°C° 0 mm 6 m/s 695 mmHg 26%
    08:00 +24°C° 0 mm 6 m/s 695 mmHg 24%
    09:00 +26°C° 0 mm 6 m/s 695 mmHg 22%
    10:00 +28°C° 0 mm 7 m/s 695 mmHg 19%
    11:00 +28°C° 0 mm 7 m/s 695 mmHg 19%
    12:00 +29°C° 0 mm 7 m/s 695 mmHg 18%
    13:00 +30°C° 0 mm 7 m/s 695 mmHg 17%
    14:00 +29°C° 0 mm 7 m/s 695 mmHg 19%
    15:00 +28°C° 0 mm 8 m/s 695 mmHg 21%
    16:00 +28°C° 0 mm 8 m/s 695 mmHg 23%
    17:00 +26°C° 0,2 mm 7 m/s 696 mmHg 27%
    18:00 +24°C° 0,2 mm 7 m/s 697 mmHg 32%
    19:00 +22°C° 0,2 mm 6 m/s 698 mmHg 37%
    20:00 +22°C° 0,4 mm 5 m/s 698 mmHg 38%
    21:00 +21°C° 0,4 mm 4 m/s 699 mmHg 40%
    22:00 +20°C° 0,4 mm 3 m/s 700 mmHg 42%
    23:00 +20°C° 0 mm 3 m/s 699 mmHg 42%

    Mâine, 21 Noiembrie, Marţi

    Timp Temperatura Precipitaţii Vânt Presiune Umiditate
    00:00 +19°C° 0 mm 3 m/s 699 mmHg 43%
    01:00 +18°C° 0 mm 2 m/s 699 mmHg 43%
    02:00 +18°C° 0 mm 2 m/s 699 mmHg 42%
    03:00 +17°C° 0 mm 2 m/s 699 mmHg 42%
    04:00 +18°C° 0 mm 1 m/s 699 mmHg 41%
    05:00 +18°C° 0 mm 2 m/s 700 mmHg 37%
    06:00 +19°C° 0 mm 2 m/s 700 mmHg 33%
    07:00 +21°C° 0 mm 2 m/s 700 mmHg 29%
    08:00 +23°C° 0 mm 2 m/s 700 mmHg 27%
    09:00 +24°C° 0 mm 3 m/s 700 mmHg 25%
    10:00 +26°C° 0 mm 3 m/s 700 mmHg 24%
    11:00 +27°C° 0 mm 3 m/s 700 mmHg 22%
    12:00 +28°C° 0 mm 3 m/s 700 mmHg 20%
    13:00 +29°C° 0 mm 4 m/s 699 mmHg 18%
    14:00 +29°C° 0 mm 3 m/s 699 mmHg 18%
    15:00 +29°C° 0 mm 3 m/s 698 mmHg 17%
    16:00 +29°C° 0 mm 3 m/s 698 mmHg 17%
    17:00 +28°C° 0 mm 3 m/s 698 mmHg 18%
    18:00 +27°C° 0 mm 3 m/s 699 mmHg 19%
    19:00 +26°C° 0 mm 2 m/s 699 mmHg 20%
    20:00 +26°C° 0 mm 2 m/s 699 mmHg 21%
    21:00 +25°C° 0 mm 2 m/s 699 mmHg 21%
    22:00 +25°C° 0 mm 2 m/s 700 mmHg 22%
    23:00 +24°C° 0 mm 2 m/s 699 mmHg 22%

    Poimâine, 22 Noiembrie, Miercuri

    Timp Temperatura Precipitaţii Vânt Presiune Umiditate
    00:00 +22°C° 0 mm 3 m/s 699 mmHg 22%
    01:00 +21°C° 0 mm 3 m/s 698 mmHg 22%
    02:00 +21°C° 0 mm 2 m/s 698 mmHg 23%
    03:00 +20°C° 0 mm 2 m/s 697 mmHg 24%
    04:00 +19°C° 0 mm 2 m/s 697 mmHg 25%
    05:00 +21°C° 0 mm 2 m/s 698 mmHg 23%
    06:00 +24°C° 0 mm 2 m/s 698 mmHg 20%
    07:00 +26°C° 0 mm 3 m/s 698 mmHg 18%
    08:00 +28°C° 0 mm 3 m/s 698 mmHg 16%
    09:00 +29°C° 0 mm 4 m/s 698 mmHg 15%
    10:00 +32°C° 0 mm 5 m/s 698 mmHg 14%
    11:00 +33°C° 0 mm 5 m/s 697 mmHg 14%
    12:00 +34°C° 0 mm 5 m/s 696 mmHg 13%
    13:00 +35°C° 0 mm 5 m/s 696 mmHg 13%
    14:00 +35°C° 0 mm 5 m/s 695 mmHg 13%
    15:00 +35°C° 0 mm 4 m/s 695 mmHg 13%
    16:00 +35°C° 0 mm 4 m/s 694 mmHg 13%
    17:00 +33°C° 0 mm 3 m/s 694 mmHg 14%
    18:00 +31°C° 0 mm 3 m/s 695 mmHg 15%
    19:00 +30°C° 0 mm 2 m/s 695 mmHg 16%
    20:00 +29°C° 0 mm 2 m/s 695 mmHg 16%
    21:00 +28°C° 0 mm 3 m/s 695 mmHg 17%
    22:00 +27°C° 0 mm 3 m/s 696 mmHg 17%
    23:00 +27°C° 0 mm 3 m/s 695 mmHg 17%

    23 Noiembrie, Joi

    Timp Temperatura Precipitaţii Vânt Presiune Umiditate
    00:00 +26°C° 0 mm 3 m/s 695 mmHg 18%
    01:00 +25°C° 0 mm 3 m/s 694 mmHg 18%
    02:00 +24°C° 0 mm 3 m/s 694 mmHg 19%
    03:00 +24°C° 0 mm 3 m/s 694 mmHg 19%
    04:00 +22°C° 0 mm 3 m/s 694 mmHg 20%
    05:00 +24°C° 0 mm 3 m/s 695 mmHg 19%
    06:00 +26°C° 0 mm 3 m/s 695 mmHg 19%
    07:00 +28°C° 0 mm 4 m/s 696 mmHg 18%
    08:00 +29°C° 0 mm 4 m/s 696 mmHg 17%
    09:00 +30°C° 0 mm 4 m/s 696 mmHg 17%
    10:00 +33°C° 0 mm 5 m/s 696 mmHg 16%
    11:00 +33°C° 0 mm 5 m/s 696 mmHg 16%
    12:00 +34°C° 0 mm 5 m/s 696 mmHg 16%
    13:00 +35°C° 0 mm 5 m/s 695 mmHg 16%
    14:00 +35°C° 0 mm 5 m/s 695 mmHg 17%
    15:00 +34°C° 0 mm 6 m/s 695 mmHg 18%
    16:00 +34°C° 0 mm 6 m/s 695 mmHg 18%
    17:00 +33°C° 0 mm 6 m/s 695 mmHg 20%
    18:00 +30°C° 0 mm 6 m/s 696 mmHg 21%
    19:00 +29°C° 0 mm 6 m/s 696 mmHg 23%
    20:00 +28°C° 0 mm 5 m/s 697 mmHg 24%
    21:00 +27°C° 0 mm 5 m/s 697 mmHg 25%
    22:00 +26°C° 0 mm 5 m/s 698 mmHg 26%
    23:00 +25°C° 0 mm 5 m/s 697 mmHg 30%

    24 Noiembrie, Vineri

    Timp Temperatura Precipitaţii Vânt Presiune Umiditate
    00:00 +23°C° 0 mm 5 m/s 697 mmHg 35%
    01:00 +21°C° 0 mm 5 m/s 696 mmHg 39%
    02:00 +21°C° 0 mm 4 m/s 696 mmHg 41%
    03:00 +20°C° 0 mm 4 m/s 696 mmHg 44%
    04:00 +19°C° 0 mm 4 m/s 695 mmHg 46%
    05:00 +20°C° 0 mm 4 m/s 696 mmHg 44%
    06:00 +21°C° 0 mm 5 m/s 696 mmHg 41%
    07:00 +21°C° 0 mm 5 m/s 696 mmHg 39%
    08:00 +23°C° 0 mm 5 m/s 696 mmHg 35%
    09:00 +26°C° 0 mm 5 m/s 696 mmHg 31%
    10:00 +27°C° 0 mm 5 m/s 696 mmHg 27%
    11:00 +28°C° 0 mm 5 m/s 696 mmHg 25%
    12:00 +29°C° 0 mm 5 m/s 695 mmHg 24%
    13:00 +32°C° 0 mm 5 m/s 695 mmHg 22%
    14:00 +32°C° 0 mm 5 m/s 695 mmHg 22%
    15:00 +32°C° 0 mm 5 m/s 695 mmHg 21%
    16:00 +32°C° 0 mm 4 m/s 694 mmHg 21%
    17:00 +30°C° 0,1 mm 4 m/s 695 mmHg 24%
    18:00 +29°C° 0,1 mm 4 m/s 696 mmHg 27%
    19:00 +28°C° 0,1 mm 4 m/s 696 mmHg 30%
    20:00 +27°C° 0,3 mm 4 m/s 696 mmHg 33%
    21:00 +27°C° 0,3 mm 4 m/s 697 mmHg 36%
    22:00 +26°C° 0,3 mm 4 m/s 697 mmHg 39%
    23:00 +25°C° 0,2 mm 4 m/s 697 mmHg 40%

    25 Noiembrie, Sâmbătă

    Timp Temperatura Precipitaţii Vânt Presiune Umiditate
    00:00 +25°C° 0,2 mm 4 m/s 697 mmHg 41%
    01:00 +24°C° 0,2 mm 3 m/s 696 mmHg 42%
    02:00 +22°C° 0,3 mm 3 m/s 697 mmHg 41%
    03:00 +23°C° 0,3 mm 2 m/s 697 mmHg 41%
    04:00 +21°C° 0,3 mm 2 m/s 697 mmHg 41%
    05:00 +23°C° 0,1 mm 2 m/s 698 mmHg 38%
    06:00 +24°C° 0,1 mm 2 m/s 698 mmHg 35%
    07:00 +25°C° 0,1 mm 2 m/s 699 mmHg 32%
    08:00 +26°C° 0 mm 2 m/s 699 mmHg 29%
    09:00 +28°C° 0 mm 2 m/s 699 mmHg 26%
    10:00 +29°C° 0 mm 2 m/s 699 mmHg 23%
    11:00 +30°C° 0 mm 2 m/s 698 mmHg 21%
    12:00 +31°C° 0 mm 2 m/s 698 mmHg 19%
    13:00 +31°C° 0 mm 3 m/s 697 mmHg 17%
    14:00 +33°C° 0 mm 3 m/s 697 mmHg 16%
    15:00 +33°C° 0 mm 3 m/s 696 mmHg 16%
    16:00 +33°C° 0 mm 3 m/s 696 mmHg 16%
    17:00 +31°C° 0 mm 3 m/s 696 mmHg 17%
    18:00 +30°C° 0 mm 3 m/s 697 mmHg 19%
    19:00 +29°C° 0 mm 2 m/s 697 mmHg 21%
    20:00 +29°C° 0 mm 2 m/s 697 mmHg 22%
    21:00 +28°C° 0 mm 2 m/s 697 mmHg 23%
    22:00 +27°C° 0 mm 3 m/s 697 mmHg 24%
    23:00 +26°C° 0 mm 2 m/s 697 mmHg 26%
    Arată mai mult